Location: Brunsen
(51.8651°N, 9.8610°E)
Time: 21:56:48
(UTC+00:00)

CZ-2C R/B - Pass Details

Date: 14 August 2024
Orbit: 782 x 869 km, 98.3° (Epoch: 07 September)

Event Time Altitude Azimuth Distance (km) Brightness Sun altitude
Exits shadow 23:13:33 - 102° (ESE) 2,789 5.3 -24.1°
Reaches altitude 10° 23:14:43 10° 93° (E) 2,462 5.0 -24.1°
Maximum altitude 23:18:13 18° 53° (NE) 1,953 5.0 -24.2°
Drops below altitude 10° 23:21:42 10° 12° (NNE) 2,434 6.1 -24.2°
Sets 23:24:45 0° 354° (N) 3,354 7.2 -24.2°
